Location: Igon
(43.1667°N, 0.2333°W)
Time: 21:32:46
(UTC+00:00)

Cosmos 1937 Rocket - Pass Details

Date: 29 November 2020
Orbit: 745 x 781 km, 74.0° (Epoch: 20 January)

Event Time Altitude Azimuth Distance (km) Brightness Sun altitude
Rises 05:01:05 0° 184° (S) 3,174 6.8 -23.1°
Reaches altitude 10° 05:03:29 10° 179° (S) 2,257 6.0 -22.7°
Maximum altitude 05:08:24 50° 104° (ESE) 948 4.3 -21.8°
Drops below altitude 10° 05:13:24 10° 30° (NNE) 2,290 6.2 -20.9°
Sets 05:15:50 0° 26° (NNE) 3,225 6.9 -20.5°
